KS5S Weather Reports


Display with metric or nautical units.
time (UTC)temp
F
wind
direction
speed
MPH
gust
MPH
rain 1hr
in
rain 24hr
in
rain mn
in
humidity
%
barometer
mb
20260901063605 84 151 3.0 4.0 0.00 0.00 0.00 55 1013.2
20260901063101 84 136 2.0 5.0 0.00 0.00 0.00 55 1013.7
20260901062556 84 149 1.0 5.0 0.00 0.00 0.00 54 1013.4
20260901062052 85 84 0.0 3.0 0.00 0.00 0.00 53 1013.2
20260901061548 86 139 3.0 6.0 0.00 0.00 0.00 51 1013.2
20260901061042 86 159 2.0 8.0 0.00 0.00 0.00 51 1013.4
20260901060537 86 143 3.0 7.0 0.00 0.00 0.00 50 1013.2
20260901060032 86 207 1.0 6.0 0.00 0.00 0.00 49 1013.2
20260901055528 87 73 0.0 5.0 0.00 0.00 0.00 49 1013.3
20260901055025 88 152 2.0 7.0 0.00 0.00 0.00 48 1013.1
20260901054521 88 149 7.0 11.0 0.00 0.00 0.00 48 1013.0
20260901054017 87 185 2.0 5.0 0.00 0.00 0.00 48 1012.8
20260901053513 88 164 3.0 5.0 0.00 0.00 0.00 46 1012.8
20260901053009 88 194 2.0 5.0 0.00 0.00 0.00 46 1012.6
20260901052504 88 174 5.0 6.0 0.00 0.00 0.00 45 1012.8
20260901052004 88 163 1.0 5.0 0.00 0.00 0.00 45 1012.7
20260901051459 87 152 3.0 4.0 0.00 0.00 0.00 45 1012.6
20260901050957 88 184 2.0 5.0 0.00 0.00 0.00 44 1012.8
20260901050452 87 168 1.0 5.0 0.00 0.00 0.00 45 1012.6
20260901045952 87 176 0.0 4.0 0.00 0.00 0.00 45 1012.6
20260901045448 87 140 3.0 4.0 0.00 0.00 0.00 45 1012.6
20260901044942 87 156 1.0 4.0 0.00 0.00 0.00 46 1012.6
20260901044438 87 154 3.0 4.0 0.00 0.00 0.00 47 1012.8
20260901043934 86 153 3.0 4.0 0.00 0.00 0.00 48 1012.7
20260901043430 86 167 1.0 3.0 0.00 0.00 0.00 49 1012.9
20260901042925 86 157 0.0 3.0 0.00 0.00 0.00 49 1012.7
20260901042424 86 157 1.0 3.0 0.00 0.00 0.00 49 1012.6
20260901041925 86 137 1.0 3.0 0.00 0.00 0.00 49 1012.8
20260901041420 86 153 1.0 2.0 0.00 0.00 0.00 49 1012.7
20260901040920 86 161 0.0 3.0 0.00 0.00 0.00 49 1012.8
20260901040414 87 120 1.0 2.0 0.00 0.00 0.00 48 1012.8
20260901035908 87 127 0.0 3.0 0.00 0.00 0.00 48 1012.7
20260901035406 87 25 0.0 3.0 0.00 0.00 0.00 48 1012.7
20260901034859 87 140 1.0 3.0 0.00 0.00 0.00 47 1012.7
20260901034354 88 141 1.0 2.0 0.00 0.00 0.00 47 1012.8
20260901033849 88 44 0.0 3.0 0.00 0.00 0.00 46 1013.0
20260901033348 88 142 0.0 3.0 0.00 0.00 0.00 46 1012.9
20260901032846 88 166 1.0 4.0 0.00 0.00 0.00 46 1013.0
20260901032341 88 143 2.0 4.0 0.00 0.00 0.00 46 1012.6
20260901031836 88 148 2.0 3.0 0.00 0.00 0.00 46 1012.8
20260901031332 88 160 1.0 4.0 0.00 0.00 0.00 46 1012.7
20260901030831 89 155 1.0 3.0 0.00 0.00 0.00 46 1012.7
20260901030327 89 137 1.0 4.0 0.00 0.00 0.00 46 1012.6
20260901025826 89 156 2.0 5.0 0.00 0.00 0.00 46 1012.5
20260901025320 89 159 2.0 6.0 0.00 0.00 0.00 46 1012.7
20260901024810 89 186 0.0 4.0 0.00 0.00 0.00 46 1012.5
20260901024309 89 153 1.0 3.0 0.00 0.00 0.00 46 1012.5
20260901023807 89 141 2.0 3.0 0.00 0.00 0.00 45 1012.4
20260901023303 89 153 2.0 2.0 0.00 0.00 0.00 45 1012.5
20260901022758 90 156 0.0 2.0 0.00 0.00 0.00 45 1012.3
20260901022254 90 169 0.0 6.0 0.00 0.00 0.00 44 1012.0
20260901021749 90 164 1.0 3.0 0.00 0.00 0.00 44 1012.5
20260901021244 90 180 0.0 3.0 0.00 0.00 0.00 44 1012.3
20260901020739 91 152 1.0 3.0 0.00 0.00 0.00 44 1012.2
20260901020234 91 166 0.0 3.0 0.00 0.00 0.00 44 1012.3
20260901015728 91 143 1.0 3.0 0.00 0.00 0.00 44 1012.1
20260901015224 91 151 2.0 3.0 0.00 0.00 0.00 43 1012.1
20260901014719 91 160 0.0 4.0 0.00 0.00 0.00 43 1012.1
20260901014215 91 135 1.0 3.0 0.00 0.00 0.00 43 1012.1
20260901013710 91 170 1.0 3.0 0.00 0.00 0.00 43 1012.1
20260901013206 92 186 0.0 3.0 0.00 0.00 0.00 42 1012.3
20260901012701 92 157 0.0 3.0 0.00 0.00 0.00 42 1012.2
20260901012155 92 180 0.0 2.0 0.00 0.00 0.00 42 1012.1
20260901011651 93 175 0.0 2.0 0.00 0.00 0.00 41 1012.1
20260901011150 93 181 0.0 2.0 0.00 0.00 0.00 41 1011.9
20260901010639 93 211 0.0 3.0 0.00 0.00 0.00 41 1012.1
20260901010133 94 195 0.0 3.0 0.00 0.00 0.00 40 1012.0
20260901005633 94 132 0.0 4.0 0.00 0.00 0.00 39 1011.9
20260901005128 94 127 0.0 3.0 0.00 0.00 0.00 39 1012.0
20260901004627 95 94 0.0 3.0 0.00 0.00 0.00 38 1011.9
20260901004122 95 155 4.0 5.0 0.00 0.00 0.00 38 1011.9
20260901003617 96 97 0.0 4.0 0.00 0.00 0.00 38 1011.9
20260901003116 96 203 0.0 2.0 0.00 0.00 0.00 38 1011.9
20260901002616 96 66 0.0 5.0 0.00 0.00 0.00 37 1011.9
20260901002110 97 74 4.0 6.0 0.00 0.00 0.00 36 1011.9
20260901001605 97 170 0.0 5.0 0.00 0.00 0.00 36 1011.7
20260901001101 98 115 2.0 4.0 0.00 0.00 0.00 35 1011.5
20260901000555 98 85 3.0 7.0 0.00 0.00 0.00 35 1011.5
20260901000052 98 125 5.0 11.0 0.00 0.00 0.00 35 1011.4
20260831235545 98 158 3.0 8.0 0.00 0.00 0.00 34 1011.5
20260831235041 98 147 5.0 13.0 0.00 0.00 0.00 34 1011.5
20260831234540 99 118 3.0 11.0 0.00 0.00 0.00 34 1011.9
20260831234037 99 172 5.0 11.0 0.00 0.00 0.00 34 1011.9
20260831233531 99 158 8.0 11.0 0.00 0.00 0.00 34 1011.8
20260831233027 99 182 3.0 6.0 0.00 0.00 0.00 33 1011.7
20260831232522 98 145 3.0 10.0 0.00 0.00 0.00 34 1011.5
20260831232018 100 180 3.0 11.0 0.00 0.00 0.00 33 1011.7
20260831231515 100 211 2.0 14.0 0.00 0.00 0.00 33 1011.8
20260831231010 100 160 8.0 11.0 0.00 0.00 0.00 32 1011.7
20260831230505 100 178 7.0 12.0 0.00 0.00 0.00 31 1011.5
20260831230005 100 204 2.0 9.0 0.00 0.00 0.00 32 1011.4
20260831225501 100 162 4.0 8.0 0.00 0.00 0.00 33 1011.8
20260831225000 100 230 3.0 9.0 0.00 0.00 0.00 33 1011.5
20260831224455 99 180 3.0 7.0 0.00 0.00 0.00 34 1011.4
20260831223949 98 172 5.0 8.0 0.00 0.00 0.00 34 1011.2
20260831223445 98 173 3.0 9.0 0.00 0.00 0.00 34 1011.5
20260831222942 98 156 3.0 10.0 0.00 0.00 0.00 34 1011.5
20260831222437 99 172 6.0 8.0 0.00 0.00 0.00 33 1011.3
20260831221932 100 150 7.0 11.0 0.00 0.00 0.00 32 1011.5
20260831221428 101 174 3.0 11.0 0.00 0.00 0.00 32 1011.7
20260831220923 101 153 4.0 9.0 0.00 0.00 0.00 31 1011.5
20260831220419 102 182 4.0 11.0 0.00 0.00 0.00 31 1011.5
20260831215914 101 152 5.0 8.0 0.00 0.00 0.00 31 1011.8
20260831215409 101 104 5.0 16.0 0.00 0.00 0.00 31 1011.4
20260831214905 102 152 1.0 16.0 0.00 0.00 0.00 31 1011.8
20260831214403 102 122 5.0 12.0 0.00 0.00 0.00 31 1011.8
20260831213858 102 168 4.0 5.0 0.00 0.00 0.00 30 1011.9
20260831213355 101 172 7.0 13.0 0.00 0.00 0.00 31 1012.0
20260831212849 102 207 7.0 9.0 0.00 0.00 0.00 30 1011.9
20260831212346 102 221 3.0 8.0 0.00 0.00 0.00 30 1012.0
20260831211845 100 163 4.0 9.0 0.00 0.00 0.00 32 1012.1
20260831211344 101 141 4.0 15.0 0.00 0.00 0.00 32 1012.1
20260831210845 101 205 4.0 13.0 0.00 0.00 0.00 32 1012.3
20260831210341 100 162 6.0 13.0 0.00 0.00 0.00 32 1012.4
20260831205836 101 165 14.0 19.0 0.00 0.00 0.00 32 1012.4
20260831205331 101 152 6.0 18.0 0.00 0.00 0.00 31 1012.5
20260831204826 101 205 6.0 11.0 0.00 0.00 0.00 31 1012.5
20260831204325 101 226 4.0 8.0 0.00 0.00 0.00 30 1012.6
20260831203824 100 175 8.0 15.0 0.00 0.00 0.00 31 1012.6
20260831203319 101 184 4.0 16.0 0.00 0.00 0.00 30 1012.6
20260831202817 99 141 3.0 9.0 0.00 0.00 0.00 33 1012.9
20260831202312 100 257 0.0 9.0 0.00 0.00 0.00 32 1012.7
20260831201807 99 129 7.0 11.0 0.00 0.00 0.00 33 1012.9
20260831201305 100 167 5.0 9.0 0.00 0.00 0.00 32 1013.0
20260831200801 99 104 3.0 25.0 0.00 0.00 0.00 35 1013.2
20260831200250 100 180 5.0 10.0 0.00 0.00 0.00 33 1013.1
20260831195746 101 157 7.0 16.0 0.00 0.00 0.00 33 1013.0
20260831195241 100 150 8.0 17.0 0.00 0.00 0.00 33 1013.0
20260831194736 99 167 10.0 13.0 0.00 0.00 0.00 35 1013.0
20260831194232 98 183 4.0 13.0 0.00 0.00 0.00 35 1013.2
20260831193725 99 184 5.0 11.0 0.00 0.00 0.00 36 1013.3
20260831193221 98 100 5.0 9.0 0.00 0.00 0.00 37 1013.3
20260831192716 99 172 4.0 10.0 0.00 0.00 0.00 38 1013.6
20260831192211 97 161 13.0 17.0 0.00 0.00 0.00 40 1013.5
20260831191707 98 133 5.0 15.0 0.00 0.00 0.00 39 1013.5
20260831191203 98 184 5.0 11.0 0.00 0.00 0.00 38 1013.5
20260831190658 98 181 5.0 13.0 0.00 0.00 0.00 39 1013.6
20260831190157 99 172 3.0 11.0 0.00 0.00 0.00 38 1013.6
20260831185652 99 178 4.0 17.0 0.00 0.00 0.00 38 1013.7
20260831185147 99 158 7.0 9.0 0.00 0.00 0.00 36 1013.7
20260831184641 99 143 5.0 15.0 0.00 0.00 0.00 36 1013.8
20260831184137 99 221 4.0 12.0 0.00 0.00 0.00 37 1013.8
20260831183631 100 228 6.0 14.0 0.00 0.00 0.00 36 1014.1
20260831183131 99 302 0.0 11.0 0.00 0.00 0.00 38 1014.1
20260831182630 98 165 6.0 15.0 0.00 0.00 0.00 38 1014.2
20260831182126 98 170 5.0 13.0 0.00 0.00 0.00 39 1014.2
20260831181625 97 157 7.0 15.0 0.00 0.00 0.00 39 1014.3
20260831181120 98 172 7.0 13.0 0.00 0.00 0.00 38 1014.3
20260831180615 98 180 5.0 9.0 0.00 0.00 0.00 39 1014.3
20260831180110 98 253 4.0 11.0 0.00 0.00 0.00 38 1014.4
20260831175605 98 156 5.0 10.0 0.00 0.00 0.00 39 1014.6
20260831175102 98 174 9.0 11.0 0.00 0.00 0.00 38 1014.9
20260831174556 97 149 3.0 7.0 0.00 0.00 0.00 39 1014.8
20260831174056 98 118 4.0 16.0 0.00 0.00 0.00 39 1014.9
20260831173554 96 202 5.0 14.0 0.00 0.00 0.00 41 1014.9
20260831173051 97 136 5.0 12.0 0.00 0.00 0.00 39 1015.1
20260831172546 97 166 5.0 17.0 0.00 0.00 0.00 41 1015.1
20260831172046 96 170 2.0 10.0 0.00 0.00 0.00 41 1015.2
20260831171541 96 165 6.0 13.0 0.00 0.00 0.00 42 1015.2
20260831171039 96 148 5.0 11.0 0.00 0.00 0.00 42 1015.2
20260831170534 95 241 6.0 13.0 0.00 0.00 0.00 42 1015.2
20260831170032 96 128 3.0 9.0 0.00 0.00 0.00 41 1015.1
20260831165531 95 169 9.0 18.0 0.00 0.00 0.00 42 1015.2
20260831165028 95 188 8.0 14.0 0.00 0.00 0.00 41 1015.2
20260831164524 95 204 4.0 14.0 0.00 0.00 0.00 42 1015.3
20260831164020 95 180 5.0 13.0 0.00 0.00 0.00 41 1015.2
20260831163514 94 213 5.0 11.0 0.00 0.00 0.00 42 1015.3
20260831163009 94 222 7.0 13.0 0.00 0.00 0.00 43 1015.4
20260831162503 95 193 7.0 10.0 0.00 0.00 0.00 42 1015.4
20260831162001 94 163 5.0 11.0 0.00 0.00 0.00 43 1015.5
20260831161458 94 153 4.0 11.0 0.00 0.00 0.00 45 1015.3
20260831160953 93 250 6.0 8.0 0.00 0.00 0.00 46 1015.1
20260831160453 93 220 3.0 10.0 0.00 0.00 0.00 47 1015.1
20260831155948 92 211 4.0 10.0 0.00 0.00 0.00 46 1015.4
20260831155443 93 195 0.0 5.0 0.00 0.00 0.00 50 1015.4
20260831154938 92 260 4.0 7.0 0.00 0.00 0.00 49 1015.2
20260831154435 91 235 4.0 8.0 0.00 0.00 0.00 51 1015.3
20260831153933 92 199 7.0 10.0 0.00 0.00 0.00 52 1015.4
20260831153429 91 238 5.0 12.0 0.00 0.00 0.00 54 1015.3
20260831152925 90 240 4.0 10.0 0.00 0.00 0.00 55 1015.2
20260831152420 90 239 4.0 10.0 0.00 0.00 0.00 56 1014.8
20260831151916 89 194 3.0 9.0 0.00 0.00 0.00 57 1015.1
20260831151414 89 242 1.0 11.0 0.00 0.00 0.00 58 1015.0
20260831150910 89 242 7.0 11.0 0.00 0.00 0.00 58 1015.2
20260831150405 89 233 2.0 8.0 0.00 0.00 0.00 61 1015.1
20260831145904 88 204 4.0 12.0 0.00 0.00 0.00 61 1014.8
20260831145401 88 236 5.0 9.0 0.00 0.00 0.00 63 1014.9
20260831144856 87 176 3.0 12.0 0.00 0.00 0.00 64 1015.0
20260831144352 86 222 5.0 15.0 0.00 0.00 0.00 66 1014.9
20260831143847 86 209 6.0 9.0 0.00 0.00 0.00 66 1014.8
20260831143342 86 245 3.0 13.0 0.00 0.00 0.00 67 1014.8
20260831142837 86 244 4.0 13.0 0.00 0.00 0.00 67 1015.1
20260831142333 86 221 3.0 14.0 0.00 0.00 0.00 67 1015.0
20260831141832 85 224 4.0 9.0 0.00 0.00 0.00 69 1015.0
20260831141327 85 201 3.0 10.0 0.00 0.00 0.00 70 1015.3
20260831140822 85 208 2.0 7.0 0.00 0.00 0.00 71 1015.1
20260831140316 83 227 8.0 11.0 0.00 0.00 0.00 73 1015.1
20260831135815 84 237 4.0 9.0 0.00 0.00 0.00 73 1014.9
20260831135310 83 238 3.0 14.0 0.00 0.00 0.00 74 1014.9
20260831134805 83 215 3.0 10.0 0.00 0.00 0.00 74 1014.9
20260831134302 83 238 1.0 8.0 0.00 0.00 0.00 75 1015.0
20260831133801 83 220 6.0 12.0 0.00 0.00 0.00 75 1015.0
20260831133300 82 204 8.0 8.0 0.00 0.00 0.00 76 1014.7
20260831132755 82 229 2.0 5.0 0.00 0.00 0.00 77 1014.6
20260831132250 82 193 0.0 4.0 0.00 0.00 0.00 77 1014.4
20260831131744 81 217 1.0 6.0 0.00 0.00 0.00 78 1014.6
20260831131242 81 190 2.0 6.0 0.00 0.00 0.00 78 1014.5
20260831130736 81 275 0.0 7.0 0.00 0.00 0.00 79 1014.4
20260831130231 80 194 2.0 4.0 0.00 0.00 0.00 79 1014.4
20260831125730 80 187 2.0 4.0 0.00 0.00 0.00 80 1014.2
20260831125226 79 282 0.0 3.0 0.00 0.00 0.00 80 1014.4
20260831124720 79 203 2.0 3.0 0.00 0.00 0.00 81 1014.2
20260831124217 79 183 0.0 5.0 0.00 0.00 0.00 81 1014.0
20260831123716 79 299 0.0 1.0 0.00 0.00 0.00 81 1014.3
20260831123215 78 258 0.0 2.0 0.00 0.00 0.00 82 1013.8
20260831122710 78 202 2.0 2.0 0.00 0.00 0.00 82 1013.9
20260831122206 78 210 2.0 3.0 0.00 0.00 0.00 83 1013.9
20260831121705 78 211 1.0 3.0 0.00 0.00 0.00 83 1013.6
20260831121202 78 198 1.0 3.0 0.00 0.00 0.00 83 1013.8
20260831120657 78 249 0.0 4.0 0.00 0.00 0.00 82 1013.6
20260831120151 78 192 4.0 5.0 0.00 0.00 0.00 82 1013.6
20260831115647 78 212 2.0 6.0 0.00 0.00 0.00 81 1013.4
20260831115143 78 167 0.0 6.0 0.00 0.00 0.00 81 1013.6
20260831114642 78 173 3.0 5.0 0.00 0.00 0.00 81 1013.3
20260831114137 78 207 2.0 7.0 0.00 0.00 0.00 80 1013.5
20260831113637 78 182 2.0 6.0 0.00 0.00 0.00 80 1013.1
20260831113132 78 144 2.0 5.0 0.00 0.00 0.00 80 1013.3
20260831112631 78 205 3.0 6.0 0.00 0.00 0.00 80 1013.3
20260831112126 78 188 3.0 5.0 0.00 0.00 0.00 79 1013.2
20260831111622 78 287 0.0 6.0 0.00 0.00 0.00 79 1013.1
20260831111117 78 175 2.0 4.0 0.00 0.00 0.00 79 1013.0
20260831110612 79 184 3.0 4.0 0.00 0.00 0.00 79 1013.4
20260831105601 79 225 1.0 4.0 0.00 0.00 0.00 78 1013.0
20260831105056 79 205 2.0 6.0 0.00 0.00 0.00 77 1013.3
20260831104552 79 294 0.0 4.0 0.00 0.00 0.00 77 1013.0
20260831104048 79 257 3.0 5.0 0.00 0.00 0.00 77 1013.1
20260831103543 79 202 2.0 3.0 0.00 0.00 0.00 77 1013.0
20260831103039 79 247 0.0 3.0 0.00 0.00 0.00 76 1013.0
20260831102533 79 190 3.0 4.0 0.00 0.00 0.00 76 1013.2
20260831102028 79 192 2.0 5.0 0.00 0.00 0.00 76 1013.0
20260831101523 79 201 3.0 5.0 0.00 0.00 0.00 76 1013.1
20260831101019 80 203 1.0 5.0 0.00 0.00 0.00 75 1013.3
20260831100515 80 205 3.0 6.0 0.00 0.00 0.00 75 1012.9
20260831100011 80 198 2.0 5.0 0.00 0.00 0.00 75 1012.9
20260831095509 80 206 3.0 4.0 0.00 0.00 0.00 74 1013.0
20260831095004 80 189 3.0 4.0 0.00 0.00 0.00 74 1012.9
20260831094500 80 201 2.0 5.0 0.00 0.00 0.00 74 1013.0
20260831093956 80 205 2.0 6.0 0.00 0.00 0.00 73 1013.1
20260831093450 81 147 0.0 6.0 0.00 0.00 0.00 73 1012.9
20260831092947 81 206 1.0 5.0 0.00 0.00 0.00 72 1012.9
20260831092442 81 245 2.0 7.0 0.00 0.00 0.00 72 1012.9
20260831091937 81 267 0.0 8.0 0.00 0.00 0.00 72 1013.1
20260831091433 81 144 2.0 6.0 0.00 0.00 0.00 72 1013.0
20260831090928 81 193 2.0 5.0 0.00 0.00 0.00 71 1012.7
20260831090424 81 199 3.0 6.0 0.00 0.00 0.00 71 1012.7
20260831085920 81 187 6.0 6.0 0.00 0.00 0.00 71 1012.7
20260831085415 81 209 1.0 7.0 0.00 0.00 0.00 70 1012.6
20260831084914 81 233 1.0 5.0 0.00 0.00 0.00 70 1013.1
20260831084410 81 180 2.0 7.0 0.00 0.00 0.00 70 1012.8
20260831083907 81 196 0.0 5.0 0.00 0.00 0.00 69 1012.7
20260831083402 81 204 3.0 5.0 0.00 0.00 0.00 69 1012.7
20260831082901 82 202 2.0 7.0 0.00 0.00 0.00 68 1012.7
20260831082401 82 208 2.0 6.0 0.00 0.00 0.00 68 1012.7
20260831081856 82 220 2.0 7.0 0.00 0.00 0.00 67 1012.6
20260831081351 82 195 0.0 5.0 0.00 0.00 0.00 67 1012.6
20260831080848 82 267 1.0 4.0 0.00 0.00 0.00 67 1012.8
20260831080343 82 208 3.0 5.0 0.00 0.00 0.00 66 1012.8
20260831075838 82 251 0.0 4.0 0.00 0.00 0.00 65 1012.7
20260831075333 82 187 2.0 6.0 0.00 0.00 0.00 65 1012.9
20260831074828 83 225 4.0 6.0 0.00 0.00 0.00 64 1012.6
20260831074327 83 233 2.0 6.0 0.00 0.00 0.00 64 1012.7
20260831073823 83 218 5.0 7.0 0.00 0.00 0.00 63 1012.7
20260831073321 83 216 3.0 7.0 0.00 0.00 0.00 63 1012.5
20260831072817 83 210 2.0 7.0 0.00 0.00 0.00 62 1012.8
20260831072313 83 228 2.0 7.0 0.00 0.00 0.00 62 1012.7
20260831071809 84 222 1.0 6.0 0.00 0.00 0.00 61 1012.7
20260831071308 84 195 5.0 6.0 0.00 0.00 0.00 61 1012.9
20260831070803 84 193 3.0 7.0 0.00 0.00 0.00 60 1012.6
20260831070301 84 196 5.0 9.0 0.00 0.00 0.00 59 1012.7
20260831065800 84 224 2.0 8.0 0.00 0.00 0.00 59 1012.8
20260831065258 85 181 11.0 11.0 0.00 0.00 0.00 58 1012.6
20260831064754 85 189 4.0 8.0 0.00 0.00 0.00 57 1012.7
20260831064249 85 207 4.0 9.0 0.00 0.00 0.00 57 1012.6